Weather History for Tallahassee, FL

Change the Weather History Date:

Monday, November 19, 2012

  Actual Average Record
Temperature  
Mean Temperature 57 °F 59 °F  
Max Temperature 72 °F 72 °F 84 °F (1985)
Min Temperature 42 °F 47 °F 22 °F (2014)
Degree Days  
Heating Degree Days 8    
Month to date heating degree days 116  
Since 1 July heating degree days 158  
Cooling Degree Days 0    
Month to date cooling degree days 15  
Year to date cooling degree days 2958  
Growing Degree Days 7 (Base 50)    
Moisture  
Dew Point 47 °F    
Average Humidity 68    
Maximum Humidity 89    
Minimum Humidity 47    
Precipitation  
Precipitation 0.00 in 0.12 in 1.75 in (1910)
Month to date precipitation 0.23 2.13  
Year to date precipitation 55.93 53.96  
Sea Level Pressure  
Sea Level Pressure 30.20 in    
Wind  
Wind Speed 5 mph (NNW)    
Max Wind Speed 15 mph    
Max Gust Speed 18 mph    
Visibility 10 miles    
Events      
T = Trace of Precipitation, MM = Missing Value Source: NWS Daily Summary

Daily Weather History Graph

Daily Weather History Graph

Search for Another Location

Airport:

Trip Planner

Search our weather history database for the weather conditions in past years. The results will help you decide how hot, cold, wet, or windy it might be!

Date:

Astronomy

Nov. 19, 2012 Rise Set
Actual Time 7:06 AM EST 5:38 PM EST
Civil Twilight 6:41 AM EST 6:04 PM EST
Nautical Twilight 6:12 AM EST 6:33 PM EST
Astronomical Twilight 5:43 AM EST 7:02 PM EST
Moon 12:18 PM EST (11/19) 11:53 PM EST (11/19)
Length of Visible Light 11h 22m
Length of Day
10h 31m
Waxing Crescent, 40% of the Moon is Illuminated
Nov 19
Waxing Crescent
Nov 20
First Quarter
Nov 28
Full
Dec 6
Last Quarter
Dec 13
New

Hourly Weather History & Observations

Time (EST) Temp. Windchill Dew Point Humidity Pressure Visibility Wind Dir Wind Speed Gust Speed Precip Events Conditions
12:53 AM 54.0 °F - 46.9 °F 77% 30.25 in 10.0 mi North 3.5 mph - N/A   Clear
1:53 AM 52.0 °F - 46.0 °F 80% 30.25 in 10.0 mi Calm Calm - N/A   Clear
2:53 AM 51.1 °F - 46.0 °F 83% 30.24 in 10.0 mi North 3.5 mph - N/A   Clear
3:53 AM 46.0 °F 44.8 °F 41.0 °F 83% 30.23 in 10.0 mi NNW 3.5 mph - N/A   Clear
4:53 AM 46.0 °F - 42.1 °F 86% 30.23 in 10.0 mi Calm Calm - N/A   Clear
5:53 AM 42.1 °F - 39.0 °F 89% 30.24 in 10.0 mi Calm Calm - N/A   Clear
6:53 AM 42.1 °F 40.2 °F 37.9 °F 85% 30.24 in 10.0 mi NNW 3.5 mph - N/A   Clear
7:53 AM 46.9 °F - 43.0 °F 86% 30.26 in 10.0 mi Calm Calm - N/A   Clear
8:53 AM 55.0 °F - 45.0 °F 69% 30.25 in 10.0 mi NNE 8.1 mph - N/A   Clear
9:53 AM 60.1 °F - 45.0 °F 57% 30.24 in 10.0 mi NNE 8.1 mph - N/A   Clear
10:53 AM 63.0 °F - 46.0 °F 54% 30.24 in 10.0 mi NNW 10.4 mph - N/A   Clear
11:53 AM 66.0 °F - 48.0 °F 52% 30.20 in 10.0 mi North 6.9 mph - N/A   Clear
12:53 PM 70.0 °F - 48.9 °F 47% 30.17 in 10.0 mi NNW 11.5 mph - N/A   Clear
1:53 PM 71.1 °F - 50.0 °F 47% 30.15 in 10.0 mi North 10.4 mph - N/A   Clear
2:53 PM 72.0 °F - 50.0 °F 46% 30.14 in 10.0 mi NNW 13.8 mph - N/A   Clear
3:53 PM 70.0 °F - 50.0 °F 49% 30.14 in 10.0 mi North 8.1 mph - N/A   Clear
4:53 PM 69.1 °F - 50.0 °F 51% 30.14 in 10.0 mi NNW 8.1 mph - N/A   Clear
5:53 PM 66.0 °F - 51.1 °F 59% 30.14 in 10.0 mi NNW 3.5 mph - N/A   Clear
6:53 PM 62.1 °F - 52.0 °F 70% 30.15 in 10.0 mi Calm Calm - N/A   Clear
7:53 PM 57.0 °F - 50.0 °F 77% 30.15 in 10.0 mi Calm Calm - N/A   Clear
8:53 PM 53.1 °F - 48.0 °F 83% 30.16 in 10.0 mi Calm Calm - N/A   Scattered Clouds
9:53 PM 55.0 °F - 50.0 °F 83% 30.16 in 10.0 mi Calm Calm - N/A   Overcast
10:53 PM 55.9 °F - 51.1 °F 84% 30.16 in 10.0 mi NW 4.6 mph - N/A   Overcast
11:53 PM 59.0 °F - 51.1 °F 75% 30.15 in 10.0 mi Calm Calm - N/A   Overcast